Overview Statistics Trail Chart Weather Telemetry Raw packets
 

This is the latest recevied weather packets stored in our database for station/object SP9WJ-3. If no packets are shown the sender has not sent any weather packets the latest 10 day(s).

<< 2 3 4 5 6 7 8 >>
Time Temp. Humidity Pressure Rain* Wind** Luminosity Snow
1788116250 23.89° C 50% 981.4 hPa - - - -
1788116198 23.89° C 50% 981.4 hPa - - - -
1788115278 23.89° C 50% 981.4 hPa - - - -
1788114358 24.44° C 49% 981.3 hPa - - - -
1788113686 24.44° C 49% 981.2 hPa - - - -
1788113438 24.44° C 49% 981.2 hPa - - - -
1788112518 24.44° C 49% 981 hPa - - - -
1788111598 24.44° C 48% 980.9 hPa - - - -
1788110678 24.44° C 48% 980.7 hPa - - - -
1788109758 25° C 47% 980.7 hPa - - - -
1788108839 25.56° C 46% 980.7 hPa - - - -
1788106997 25.56° C 46% 980.7 hPa - - - -
1788106077 25.56° C 46% 980.8 hPa - - - -
1788102395 26.11° C 44% 981 hPa - - - -
1788101474 25.56° C 45% 981.1 hPa - - - -
1788100554 25.56° C 46% 981.3 hPa - - - -
1788099634 25° C 47% 981.3 hPa - - - -
1788098714 24.44° C 49% 981.3 hPa - - - -
1788096008 23.89° C 52% 981.5 hPa - - - -
1788095954 23.89° C 52% 981.5 hPa - - - -
1788095447 23.89° C 52% 981.5 hPa - - - -
1788095034 23.89° C 52% 981.5 hPa - - - -
1788094114 23.89° C 52% 981.6 hPa - - - -
1788093194 23.89° C 52% 981.7 hPa - - - -
1788092274 23.89° C 53% 981.8 hPa - - - -

* Rain since midnight (hover to see other rain measurements)
** Current wind speed in m/s (hover to see current wind gust speed)